Middleton, WI

3:37 PM CST on January 19, 2018 (GMT -0600)
Middleton

Weather History for KC29 - November, 2012

Change the Weather History Date:

Tuesday, November 27, 2012

  Actual Average (KMSN) Record (KMSN)
Temperature  
Mean Temperature 22 °F -  
Max Temperature 33 °F 37 °F 65 °F (1990)
Min Temperature 11 °F 24 °F -7 °F (1887)
Degree Days  
Heating Degree Days 43    
Moisture  
Dew Point 9 °F    
Average Humidity 56    
Maximum Humidity 81    
Minimum Humidity 33    
Precipitation  
Precipitation 0.00 in - - ()
Sea Level Pressure  
Sea Level Pressure 30.28 in    
Wind  
Wind Speed 4 mph (SW)    
Max Wind Speed 13 mph    
Max Gust Speed 16 mph    
Visibility 10 miles    
Events      
Averages and records for this station are not official NWS values.
T = Trace of Precipitation, MM = Missing Value Source: NWS Daily Summary

Daily Weather History Graph

Daily Weather History Graph

Search for Another Location

Airport or City:

Trip Planner

Search our weather history database for the weather conditions in past years. The results will help you decide how hot, cold, wet, or windy it might be!

Date:

Astronomy

Nov. 27, 2012 Rise Set
Actual Time 7:06 AM CST 4:25 PM CST
Civil Twilight 6:34 AM CST 4:57 PM CST
Nautical Twilight 5:59 AM CST 5:32 PM CST
Astronomical Twilight 5:25 AM CST 6:06 PM CST
Moon 3:57 PM CST (11/27) 6:10 AM CST (11/27)
Length of Visible Light 10h 22m
Length of Day
9h 19m
Waxing Gibbous, 99% of the Moon is Illuminated
Nov 27
Waxing Gibbous
Nov 28
Full
Dec 6
Last Quarter
Dec 13
New
Dec 19
First Quarter

Hourly Weather History & Observations

Time (CST) Temp. Windchill Dew Point Humidity Pressure Visibility Wind Dir Wind Speed Gust Speed Precip Events Conditions
12:15 AM 14.0 °F 8.2 °F 7.7 °F 76% 30.36 in 10.0 mi WNW 3.5 mph - N/A   Clear
12:35 AM 11.5 °F - 5.5 °F 77% 30.36 in 10.0 mi Calm Calm - N/A   Clear
12:55 AM 12.4 °F - 7.0 °F 79% 30.36 in 10.0 mi Calm Calm - N/A   Clear
1:15 AM 14.7 °F - 7.5 °F 73% 30.36 in 10.0 mi Calm Calm - N/A   Clear
1:34 AM 14.0 °F - 6.8 °F 73% 30.36 in 10.0 mi Calm Calm - N/A   Clear
1:54 AM 12.2 °F - 6.8 °F 79% 30.37 in 10.0 mi Calm Calm - N/A   Clear
2:14 AM 14.0 °F - 8.6 °F 79% 30.37 in 10.0 mi Calm Calm - N/A   Clear
2:34 AM 14.0 °F - 6.8 °F 73% 30.37 in 10.0 mi Calm Calm - N/A   Clear
2:54 AM 15.8 °F - 8.6 °F 73% 30.37 in 10.0 mi Calm Calm - N/A   Clear
3:15 AM 14.0 °F - 6.8 °F 73% 30.36 in 10.0 mi Calm Calm - N/A   Clear
3:35 AM 12.2 °F - 6.8 °F 79% 30.36 in 10.0 mi Calm Calm - N/A   Clear
3:55 AM 12.2 °F - 6.8 °F 79% 30.35 in 10.0 mi Calm Calm - N/A   Clear
4:15 AM 13.1 °F - 7.5 °F 78% 30.35 in 10.0 mi Calm Calm - N/A   Clear
4:21 AM 12.2 °F - 6.8 °F 79% 30.35 in 10.0 mi Calm Calm - N/A   Clear
4:35 AM 13.1 °F - 7.3 °F 78% 30.35 in 10.0 mi Calm Calm - N/A   Clear
4:55 AM 13.1 °F - 7.7 °F 79% 30.35 in 10.0 mi Calm Calm - N/A   Clear
5:15 AM 12.9 °F - 7.5 °F 79% 30.35 in 10.0 mi Calm Calm - N/A   Clear
5:35 AM 12.2 °F - 7.3 °F 81% 30.35 in 10.0 mi Calm Calm - N/A   Clear
6:35 AM 14.0 °F - 8.4 °F 78% 30.35 in 10.0 mi Calm Calm - N/A   Clear
6:55 AM 13.5 °F - 7.7 °F 78% 30.35 in 10.0 mi Calm Calm - N/A   Clear
7:15 AM 14.0 °F - 8.4 °F 78% 30.35 in 10.0 mi Calm Calm - N/A   Clear
7:35 AM 14.4 °F 8.6 °F 8.4 °F 77% 30.35 in 10.0 mi SSW 3.5 mph - N/A   Clear
7:55 AM 16.9 °F 11.5 °F 10.0 °F 75% 30.35 in 10.0 mi SW 3.5 mph - N/A   Clear
8:15 AM 18.7 °F 10.6 °F 10.8 °F 71% 30.36 in 10.0 mi SW 5.8 mph - N/A   Clear
8:35 AM 19.8 °F 13.2 °F 10.8 °F 68% 30.36 in 10.0 mi SW 4.6 mph - N/A   Clear
8:55 AM 22.6 °F 18.0 °F 12.6 °F 65% 30.36 in 10.0 mi WSW 3.5 mph - N/A   Clear
9:15 AM 24.1 °F 19.7 °F 12.2 °F 61% 30.36 in 10.0 mi WSW 3.5 mph - N/A   Clear
9:35 AM 24.6 °F 16.7 °F 11.8 °F 58% 30.35 in 10.0 mi SW 6.9 mph - N/A   Clear
9:55 AM 25.9 °F 17.4 °F 11.3 °F 54% 30.35 in 10.0 mi SW 8.1 mph - N/A   Clear
10:35 AM 27.7 °F 19.6 °F 9.5 °F 46% 30.35 in 10.0 mi SW 8.1 mph - N/A   Clear
10:55 AM 28.0 °F 20.8 °F 10.8 °F 48% 30.34 in 10.0 mi WSW 6.9 mph - N/A   Clear
11:15 AM 28.8 °F 20.2 °F 10.9 °F 47% 30.33 in 10.0 mi SSW 9.2 mph - N/A   Clear
11:35 AM 30.0 °F 21.1 °F 10.2 °F 44% 30.31 in 10.0 mi SW 10.4 mph - N/A   Clear
11:55 AM 31.3 °F 21.6 °F 9.7 °F 41% 30.30 in 10.0 mi SSW 12.7 mph - N/A   Clear
12:15 PM 31.8 °F 23.9 °F 7.7 °F 36% 30.29 in 10.0 mi SW 9.2 mph - N/A   Clear
12:35 PM 32.0 °F 24.2 °F 8.8 °F 38% 30.28 in 10.0 mi WSW 9.2 mph - N/A   Clear
12:55 PM 32.4 °F 23.5 °F 8.8 °F 37% 30.27 in 10.0 mi SSW 11.5 mph 16.1 mph N/A   Clear
1:15 PM 32.5 °F 25.5 °F 8.1 °F 36% 30.25 in 10.0 mi SW 8.1 mph - N/A   Clear
1:35 PM 32.4 °F 24.0 °F 7.9 °F 36% 30.24 in 10.0 mi SSW 10.4 mph - N/A   Clear
1:55 PM 32.7 °F 24.5 °F 8.2 °F 36% 30.22 in 10.0 mi SSW 10.4 mph - N/A   Clear
2:15 PM 33.3 °F 25.1 °F 6.6 °F 33% 30.22 in 10.0 mi SW 10.4 mph - N/A   Clear
2:35 PM 32.4 °F 24.0 °F 6.4 °F 34% 30.21 in 10.0 mi SSW 10.4 mph 16.1 mph N/A   Clear
2:55 PM 32.9 °F 26.7 °F 7.3 °F 34% 30.22 in 10.0 mi SW 6.9 mph - N/A   Clear
3:15 PM 33.1 °F 25.5 °F 7.5 °F 34% 30.21 in 10.0 mi SW 9.2 mph - N/A   Clear
3:35 PM 32.5 °F 25.5 °F 6.8 °F 34% 30.21 in 10.0 mi SW 8.1 mph - N/A   Clear
3:55 PM 32.0 °F 25.6 °F 8.1 °F 37% 30.21 in 10.0 mi SW 6.9 mph - N/A   Clear
4:15 PM 31.1 °F 26.4 °F 8.2 °F 38% 30.21 in 10.0 mi SSW 4.6 mph - N/A   Scattered Clouds
4:55 PM 31.1 °F 24.5 °F 9.9 °F 41% 30.20 in 10.0 mi SSW 6.9 mph - N/A   Overcast
5:15 PM 31.1 °F 24.5 °F 9.9 °F 41% 30.20 in 10.0 mi SSW 6.9 mph - N/A   Overcast
5:35 PM 31.1 °F 24.5 °F 10.0 °F 41% 30.20 in 10.0 mi SW 6.9 mph - N/A   Overcast
5:55 PM 30.7 °F 22.6 °F 10.8 °F 43% 30.20 in 10.0 mi SW 9.2 mph - N/A   Overcast
6:15 PM 30.2 °F 23.4 °F 11.3 °F 45% 30.20 in 10.0 mi SSW 6.9 mph - N/A   Overcast
6:35 PM 29.8 °F 23.0 °F 11.3 °F 46% 30.20 in 10.0 mi SW 6.9 mph - N/A   Overcast
6:55 PM 29.7 °F 22.0 °F 11.5 °F 47% 30.19 in 10.0 mi SW 8.1 mph - N/A   Overcast
7:15 PM 29.7 °F 21.3 °F 12.0 °F 48% 30.19 in 10.0 mi SW 9.2 mph - N/A   Overcast
7:35 PM 30.0 °F 22.4 °F 12.0 °F 47% 30.20 in 10.0 mi SW 8.1 mph - N/A   Overcast
7:55 PM 30.2 °F 21.9 °F 12.2 °F 47% 30.20 in 10.0 mi SW 9.2 mph - N/A   Overcast
8:15 PM 30.2 °F 21.9 °F 12.9 °F 49% 30.20 in 10.0 mi SW 9.2 mph - N/A   Overcast
8:35 PM 30.2 °F 21.9 °F 12.7 °F 48% 30.20 in 10.0 mi WSW 9.2 mph - N/A   Overcast
8:55 PM 30.7 °F 23.3 °F 12.9 °F 48% 30.20 in 10.0 mi WSW 8.1 mph - N/A   Overcast
9:15 PM 31.1 °F 23.1 °F 12.7 °F 47% 30.20 in 10.0 mi SW 9.2 mph - N/A   Overcast
9:35 PM 31.1 °F 22.4 °F 12.9 °F 47% 30.20 in 10.0 mi WSW 10.4 mph - N/A   Overcast
9:55 PM 31.3 °F 23.3 °F 13.1 °F 47% 30.19 in 10.0 mi WSW 9.2 mph - N/A   Overcast
10:15 PM 31.5 °F 22.9 °F 13.1 °F 47% 30.19 in 10.0 mi WSW 10.4 mph - N/A   Overcast
10:55 PM 32.0 °F 24.8 °F 13.1 °F 46% 30.19 in 10.0 mi WSW 8.1 mph - N/A   Overcast
11:15 PM 32.0 °F 24.8 °F 13.1 °F 46% 30.19 in 10.0 mi WSW 8.1 mph - N/A   Overcast
11:55 PM 31.5 °F 23.5 °F 13.1 °F 47% 30.20 in 10.0 mi West 9.2 mph - N/A   Mostly Cloudy